Location: Newark
(7.0858°N, 171.3717°E)
Time: 05:52:43
(UTC+00:00)

Courier 1B - Pass Details

Date: 03 December 2020
Orbit: 962 x 1209 km, 28.3° (Epoch: 19 January)

Event Time Altitude Azimuth Distance (km) Brightness Sun altitude
Rises 06:18:14 0° 249° (WSW) 3,675 14.8 -1.2°
Reaches altitude 10° 06:20:57 10° 253° (WSW) 2,707 12.0 -1.9°
Maximum altitude 06:27:21 60° 332° (NNW) 1,084 7.9 -3.3°
Drops below altitude 10° 06:33:44 10° 51° (NE) 2,693 9.2 -4.8°
Enters shadow 06:35:06 - 54° (NE) 3,177 9.5 -5.1°
Sets 06:36:26 0° 55° (NE) 3,655 - -5.4°
